Location: Unspecified
(0.0000°N, 0.0000°E)
Time: 15:36:44
(UTC+00:00)

S-56A Canister/Altair - All Passes

Search period start: 27 June 2017 00:00
Search period end: 07 July 2017 00:00
Orbit: 636 x 2498 km, 38.9° (Epoch: 26 June)

Date Brightness Start Highest point End Pass type
(mag) Time Alt. Az. Time Alt. Az. Time Alt. Az.
27 Jun - 01:23:26 10° W 01:33:21 26° NNW 01:44:53 10° NNE visible
27 Jun - 08:02:43 10° N 08:08:09 15° NNE 08:12:42 10° NE daylight
27 Jun - 10:05:51 10° NW 10:14:55 54° NE 10:20:56 10° ESE daylight
27 Jun - 12:13:33 10° W 12:18:43 22° SW 12:22:49 10° S daylight
27 Jun - 20:41:29 10° S 20:47:52 25° SE 20:56:20 10° E night (unlit)
27 Jun - 22:43:09 10° SW 22:52:38 84° NW 23:06:31 10° NE visible
28 Jun - 00:50:02 10° W 00:59:53 29° NNW 01:11:51 10° NNE visible
28 Jun - 07:29:50 10° N 07:34:57 14° NNE 07:39:23 10° NE daylight
28 Jun - 09:32:42 10° NW 09:42:13 47° NE 09:48:36 10° ESE daylight
28 Jun - 11:39:53 10° WNW 11:46:22 30° SW 11:51:11 10° SSE daylight
28 Jun - 20:10:01 10° S 20:15:13 19° SE 20:21:49 10° E visible
28 Jun - 22:10:49 10° SW 22:19:40 86° SE 22:32:57 10° NE visible
29 Jun - 00:16:50 10° W 00:26:30 32° NNW 00:38:43 10° NNE visible
29 Jun - 02:33:40 10° NNW 02:36:28 11° NNW 02:39:21 10° N visible
29 Jun - 06:56:58 10° N 07:01:39 13° NNE 07:05:49 10° NE daylight
29 Jun - 08:59:30 10° NNW 09:09:26 42° NE 09:16:11 10° ESE daylight
29 Jun - 11:06:18 10° WNW 11:14:00 39° SW 11:19:24 10° SSE daylight
29 Jun - 19:38:58 10° SSE 19:42:37 14° SE 19:46:52 10° ESE visible
29 Jun - 21:38:34 10° SW 21:46:48 75° SE 21:59:20 10° NE visible
29 Jun - 23:43:50 10° W 23:53:11 35° NW 00:05:31 10° NNE visible
30 Jun - 01:58:08 10° NW 02:02:42 12° NNW 02:07:30 10° N visible
30 Jun - 06:24:12 10° N 06:28:15 12° NNE 06:31:56 10° NE daylight
30 Jun - 08:26:18 10° NNW 08:36:33 37° NE 08:43:40 10° E daylight
30 Jun - 10:32:44 10° WNW 10:41:35 50° SW 10:47:31 10° SSE daylight
30 Jun - 21:06:26 10° SW 21:14:03 63° SE 21:25:40 10° ENE visible
30 Jun - 23:10:59 10° W 23:19:57 39° NW 23:32:16 10° NNE visible
01 Jul - 01:23:28 10° NW 01:29:01 13° NNW 01:35:00 10° N visible
01 Jul - 05:51:40 10° N 05:54:44 11° NNE 05:57:37 10° NNE daylight
01 Jul - 07:53:05 10° NNW 08:03:34 34° NNE 08:11:03 10° E daylight
01 Jul - 09:59:12 10° WNW 10:09:05 63° SW 10:15:32 10° SE daylight
01 Jul - 20:34:23 10° SSW 20:41:24 52° SE 20:51:57 10° ENE visible
01 Jul - 22:38:16 10° WSW 22:46:49 43° NW 22:58:58 10° NNE visible
02 Jul - 00:49:17 10° NW 00:55:24 15° NNW 01:02:14 10° N visible
02 Jul - 05:20:05 10° NNE 05:21:07 10° NNE 05:22:08 10° NNE visible
02 Jul - 07:19:52 10° NNW 07:30:30 31° NNE 07:38:18 10° E daylight
02 Jul - 09:25:40 10° NW 09:36:29 76° SW 09:43:28 10° SE daylight
02 Jul - 11:38:17 10° WSW 11:40:13 11° SW 11:42:00 10° SSW daylight
02 Jul - 20:02:26 10° SSW 20:08:50 42° SE 20:18:12 10° ENE visible
02 Jul - 22:05:42 10° WSW 22:13:46 49° NW 22:25:39 10° NE visible
03 Jul - 00:15:26 10° WNW 00:21:52 16° NNW 00:29:19 10° N visible
03 Jul - 06:46:40 10° NNW 06:57:18 28° NNE 07:05:25 10° E daylight
03 Jul - 08:52:09 10° NW 09:03:48 89° SW 09:11:18 10° SE daylight
03 Jul - 11:02:58 10° W 11:07:43 16° SW 11:11:38 10° S daylight
03 Jul - 19:30:38 10° SSW 19:36:20 33° SE 19:44:24 10° ENE visible
03 Jul - 21:33:13 10° WSW 21:40:50 55° NW 21:52:19 10° NE visible
03 Jul - 23:41:52 10° WNW 23:48:27 17° NNW 23:56:18 10° N visible
04 Jul - 06:13:29 10° NNW 06:24:02 25° NNE 06:32:22 10° E daylight
04 Jul - 08:18:39 10° NW 08:31:00 80° NE 08:39:03 10° SE daylight
04 Jul - 10:28:30 10° W 10:35:13 22° SW 10:40:22 10° S daylight
04 Jul - 18:58:57 10° S 19:03:54 25° SE 19:10:30 10° E visible
04 Jul - 21:00:52 10° WSW 21:08:00 63° NW 21:18:58 10° NE visible
04 Jul - 23:08:32 10° WNW 23:15:07 19° NNW 23:23:14 10° NNE visible
05 Jul - 05:40:21 10° NNW 05:50:39 23° NNE 05:59:08 10° ENE visible
05 Jul - 07:45:11 10° NW 07:58:06 70° NE 08:06:42 10° ESE daylight
05 Jul - 09:54:17 10° W 10:02:40 28° SW 10:08:47 10° S daylight
05 Jul - 18:27:29 10° S 18:31:30 19° SE 18:36:29 10° E visible
05 Jul - 20:28:34 10° SW 20:35:16 72° NW 20:45:38 10° NE visible
05 Jul - 22:35:24 10° WNW 22:41:54 20° NNW 22:50:09 10° NNE visible
06 Jul - 05:07:18 10° NNW 05:17:12 21° NNE 05:25:40 10° ENE visible
06 Jul - 07:11:45 10° NW 07:25:06 62° NE 07:34:15 10° ESE daylight
06 Jul - 09:20:13 10° WNW 09:30:04 35° SW 09:37:00 10° SSE daylight
06 Jul - 17:56:28 10° SSE 17:59:05 13° SE 18:02:05 10° ESE daylight
06 Jul - 19:56:23 10° SW 20:02:38 85° NW 20:12:19 10° NE visible
06 Jul - 22:02:26 10° WNW 22:08:46 22° NNW 22:17:03 10° NNE visible
